Wind_Speed
37 37 36 35 34 33 33 32 31 31 31 30 29 29 28 27 26 24 21 19 17 16 15 15 14 13 13 13 12 11 10 10 9 9 11 12 14 17 19 22 25 29 32 34 36 38 39 41 42 44 44 44 43 42 41 41 39 38 36 35 34 34 35 35 35 34 31 30 30 29 30 30 30 32 32 31 31 31 30 29 27 26 26 26 27 28 28 28
40 39 38 38 37 36 35 35 34 34 33 33 32 31 30 30 28 26 24 22 20 19 18 17 17 16 16 16 16 15 13 12 11 11 11 11 12 14 16 18 21 24 27 30 33 35 37 39 40 42 43 44 44 44 43 43 42 40 39 38 37 36 36 36 37 37 35 34 34 33 33 32 32 32 30 28 28 27 25 24 25 25 25 25 25 26 27 28
42 42 41 40 39 39 38 37 37 37 36 36 35 34 33 32 30 29 27 25 24 22 21 20 20 19 19 18 18 18 17 15 15 14 11 12 12 13 14 15 17 19 21 24 28 31 34 36 38 40 41 42 43 43 43 43 42 41 40 40 40 40 40 38 38 38 37 37 36 35 33 31 31 29 26 25 23 22 22 22 24 24 24 25 26 26 27 28
44 44 44 43 42 41 41 40 40 40 39 38 38 37 35 34 33 31 30 28 27 26 24 23 22 22 22 21 21 21 21 19 18 16 14 16 15 13 14 14 15 16 17 19 21 25 28 32 34 37 39 40 41 42 42 42 41 41 41 41 41 42 41 40 39 38 38 37 35 33 31 29 28 26 23 21 19 20 22 23 24 24 25 26 26 25 26 26
46 46 46 46 45 44 44 43 43 43 42 41 40 39 38 37 35 34 32 31 30 28 28 26 25 25 24 24 23 23 24 22 21 20 19 19 16 15 14 14 14 15 16 16 16 18 21 24 28 31 34 36 38 39 40 40 40 40 40 41 41 42 42 40 38 37 38 37 34 31 28 27 26 23 20 19 19 20 22 23 24 24 24 24 25 25 25 25
48 48 48 48 48 47 47 46 46 46 45 44 44 42 41 40 38 36 35 33 32 31 30 30 29 28 27 27 27 26 26 25 25 25 22 20 18 18 17 16 15 15 15 15 15 16 17 18 20 23 27 30 32 34 36 37 37 38 39 39 39 40 40 38 36 36 36 34 31 28 25 25 23 19 17 17 18 20 21 22 23 22 22 22 23 24 24 25
50 50 50 50 50 49 49 49 49 49 48 48 47 45 44 43 41 39 37 36 35 33 33 32 32 31 30 30 30 30 29 28 28 27 24 23 23 22 20 19 17 16 16 16 16 16 16 16 16 17 19 22 25 27 29 31 33 34 35 35 36 36 35 34 33 32 31 28 26 24 22 21 20 17 16 16 18 19 20 21 21 21 21 21 21 22 24 24
51 52 52 52 52 52 52 51 51 51 51 50 49 48 47 46 44 42 41 39 38 36 35 35 34 34 33 32 33 33 32 32 30 29 28 28 27 26 24 22 21 19 18 17 17 17 16 16 16 16 16 16 17 20 22 24 26 27 28 29 30 30 30 28 28 27 26 24 22 21 19 19 18 16 16 16 17 19 19 19 19 20 21 21 21 22 22 21
53 53 54 54 54 54 54 54 54 53 53 53 52 51 49 48 47 45 44 42 41 39 38 38 37 36 36 35 36 35 35 35 32 31 33 32 30 30 28 26 25 23 21 20 20 19 19 17 17 16 15 15 16 17 18 18 19 20 22 23 24 24 25 25 24 24 23 22 21 20 19 18 17 15 16 16 17 18 18 17 18 19 20 20 21 21 20 19
54 55 55 55 56 56 56 56 56 55 55 55 54 53 52 51 50 48 47 45 44 42 41 40 39 39 38 38 39 37 36 37 36 35 36 34 33 33 32 31 29 27 25 24 23 22 21 19 18 17 16 17 17 17 16 16 16 17 18 19 19 20 21 23 24 24 23 21 21 21 20 19 16 15 16 16 16 18 18 17 18 19 19 19 20 19 18 18
56 56 57 57 57 57 57 57 57 57 57 56 56 55 54 53 52 50 49 47 46 44 43 42 42 41 40 42 42 38 38 41 40 38 37 37 36 35 35 35 33 31 30 28 27 25 23 21 20 19 20 20 18 17 17 17 16 17 17 17 17 18 20 22 24 26 25 23 22 22 22 19 17 16 16 16 16 17 17 17 18 18 17 17 17 16 15 17
58 58 58 59 59 59 59 59 59 59 58 58 57 57 56 54 53 52 51 50 48 47 45 44 44 43 43 45 44 38 40 44 42 40 39 39 38 37 38 38 37 35 34 32 30 28 26 24 23 23 23 21 20 20 20 19 19 19 19 18 18 19 20 21 23 25 26 25 24 23 22 20 18 18 18 16 16 16 16 16 17 17 16 16 16 14 14 16
60 60 60 60 61 61 61 61 61 60 60 59 59 58 57 56 54 54 53 52 51 49 48 46 45 45 45 48 45 40 43 46 44 43 41 41 41 41 41 40 39 38 37 36 34 32 31 28 27 27 25 23 23 24 23 22 22 22 20 19 19 20 20 21 22 23 24 23 24 24 22 21 20 20 19 17 16 17 15 15 16 17 16 15 16 15 13 14
61 61 61 62 62 63 62 62 62 62 62 61 60 60 59 58 56 55 54 54 53 51 50 49 48 47 47 50 46 42 45 47 47 46 44 43 43 43 43 42 41 41 40 39 38 36 34 32 31 29 28 27 28 27 25 25 24 23 21 21 22 23 22 21 22 23 23 23 23 24 23 22 22 22 20 18 18 17 14 15 17 17 16 15 14 14 12 13
63 63 63 63 64 64 64 64 64 64 63 63 62 62 61 60 58 57 57 56 55 54 53 51 51 49 50 52 48 44 47 49 50 48 45 44 44 44 45 44 44 43 43 42 41 40 38 36 34 33 32 32 31 29 28 28 27 25 25 25 26 26 23 22 23 24 25 24 24 25 24 23 23 22 21 19 18 18 15 15 17 16 16 14 13 13 12 14
66 66 66 66 66 66 66 66 66 66 66 65 64 64 64 63 61 60 59 59 58 57 56 54 53 52 52 53 50 47 48 51 51 48 47 46 46 47 47 47 46 46 45 44 43 42 41 39 38 36 36 35 33 32 31 31 30 28 28 29 29 27 25 24 25 26 26 25 26 26 25 24 24 23 22 20 19 19 16 15 16 15 15 14 12 12 13 15
69 69 69 69 69 69 69 69 69 69 69 68 68 67 67 66 65 63 62 62 61 60 58 57 55 54 54 55 53 50 49 52 52 51 51 50 49 49 49 49 48 47 47 46 45 44 43 42 41 40 38 37 36 36 33 33 34 33 33 33 32 30 28 27 28 28 28 27 28 27 25 25 25 24 24 22 20 19 17 15 15 14 14 13 12 12 13 14
72 73 73 73 73 72 72 72 72 72 71 71 71 70 69 69 68 66 65 65 64 62 61 59 57 56 56 56 56 53 52 53 54 54 54 52 52 51 51 51 50 49 48 47 47 46 45 44 44 42 40 39 39 38 37 39 40 38 36 36 34 32 29 29 30 30 29 29 29 28 27 27 26 26 25 23 21 20 19 17 16 14 13 13 13 14 14 14
76 77 77 77 76 76 76 75 75 75 75 74 74 73 72 72 71 68 68 68 66 65 63 61 59 59 59 59 59 57 55 55 54 55 55 54 54 53 52 53 52 51 49 49 49 48 47 46 44 43 43 43 43 42 44 46 44 40 38 37 35 33 31 31 31 31 31 30 30 30 30 29 27 27 26 25 22 21 20 19 17 14 12 14 14 14 14 13
81 81 81 81 81 81 80 80 79 79 78 78 77 77 76 75 74 72 70 71 69 68 66 63 62 62 63 63 62 61 58 57 56 56 58 57 56 55 54 54 54 52 51 52 51 50 49 46 44 46 48 48 46 45 47 47 45 42 40 38 36 34 33 33 33 33 32 31 32 32 31 30 29 27 27 26 24 22 22 20 18 15 13 15 14 13 13 13
84 84 85 85 85 85 85 84 83 83 82 82 81 80 80 78 78 76 73 73 73 72 70 68 65 65 67 67 66 66 63 60 59 60 61 60 59 57 55 56 56 54 55 55 53 52 49 46 48 51 51 50 49 48 47 47 45 43 41 39 38 36 35 35 35 34 34 33 33 34 32 32 31 28 28 28 25 24 24 21 19 17 15 15 14 12 12 13
84 85 86 87 87 88 89 88 88 87 87 86 85 84 84 83 81 80 77 75 77 77 73 72 70 67 72 73 70 69 66 63 63 63 63 63 61 59 58 58 58 58 59 57 54 52 49 50 55 55 53 52 51 49 48 47 46 44 43 41 39 38 37 37 36 36 36 35 35 35 34 33 33 31 29 29 28 26 25 23 22 20 17 16 15 13 12 13
85 86 86 87 88 88 89 90 90 89 89 89 89 88 88 87 86 84 81 77 78 81 78 75 75 72 74 78 75 72 69 68 68 67 66 65 63 63 61 60 60 61 60 57 55 54 53 57 59 55 53 53 52 51 50 48 47 45 43 42 42 42 41 40 39 39 39 37 37 37 36 35 35 33 30 30 30 28 27 25 24 23 20 18 18 15 13 14
87 87 88 88 89 89 89 90 91 90 90 90 90 90 90 90 89 87 85 81 80 85 84 79 78 77 78 82 81 74 71 72 71 70 69 67 67 67 64 63 64 63 60 59 58 56 58 62 59 55 54 54 53 52 50 48 47 46 45 44 45 46 45 44 43 42 41 40 39 39 37 37 37 35 33 32 31 30 28 26 26 27 24 20 19 17 15 15
90 90 91 90 91 91 90 91 92 92 91 91 91 91 90 90 90 89 87 85 83 87 90 86 82 83 84 85 83 77 74 74 73 73 72 70 71 70 68 67 66 64 61 62 61 59 61 63 59 56 56 55 54 53 51 50 49 47 47 46 47 49 49 47 46 45 44 41 40 40 38 38 39 37 36 36 33 31 30 28 27 30 29 23 21 20 18 16
92 92 93 93 94 95 94 94 94 94 93 93 92 91 91 90 90 89 87 86 86 88 91 92 89 88 88 87 84 82 79 75 76 78 76 73 73 73 72 69 67 66 65 65 64 61 63 63 60 59 59 57 56 54 53 53 51 49 49 49 50 52 51 50 49 48 45 43 41 42 40 39 40 39 39 39 37 33 31 30 30 32 32 27 22 21 20 17
91 92 93 93 94 95 96 96 97 96 96 95 94 93 92 91 90 89 88 87 90 91 91 94 94 92 91 90 89 87 80 77 80 82 78 76 76 75 74 71 70 69 69 69 65 61 64 65 62 61 62 59 56 55 56 56 53 51 52 53 53 54 53 52 51 48 46 45 43 42 42 41 40 40 40 41 40 36 33 31 32 34 35 31 24 23 23 20
90 91 92 93 93 93 95 96 97 97 97 97 97 96 95 94 92 90 89 91 94 95 94 94 95 94 92 91 91 89 84 83 84 85 83 81 80 78 76 74 73 73 73 71 65 64 69 67 64 65 64 60 58 59 60 58 55 54 56 56 54 55 54 53 52 49 47 46 44 43 42 41 40 40 42 43 41 39 37 35 34 36 37 34 28 25 25 22
90 91 92 93 94 94 94 95 95 96 96 96 95 96 96 95 94 93 93 95 98 99 96 95 94 94 92 90 90 90 88 87 86 88 88 85 82 81 79 77 77 77 77 73 68 70 72 69 67 67 64 60 60 62 62 59 56 57 59 58 56 56 55 54 52 50 49 46 44 44 44 43 42 43 44 45 44 44 43 39 36 36 38 38 31 27 27 25
91 92 93 93 94 94 94 93 94 96 96 95 94 94 94 94 93 94 96 99 104 102 97 95 93 93 93 91 89 89 89 88 87 89 91 89 86 84 82 82 82 80 78 75 71 72 73 71 70 67 63 62 62 63 62 59 58 60 60 59 58 56 55 54 52 52 50 45 44 46 47 47 46 45 46 47 48 50 47 43 38 35 39 41 35 30 29 28
94 94 95 94 94 94 94 93 93 93 94 95 95 94 94 93 92 93 95 99 105 104 99 95 93 93 93 92 90 90 90 90 89 89 91 91 89 87 86 86 84 82 79 76 72 74 76 74 70 66 65 64 64 64 62 60 61 61 61 60 58 57 56 55 53 53 48 43 45 50 53 52 48 47 49 50 52 52 49 47 41 37 40 43 39 34 31 30
95 96 96 96 95 95 95 94 93 92 92 92 93 93 94 94 93 93 95 98 101 101 97 94 93 94 94 93 92 93 93 93 93 92 91 92 90 87 86 85 84 83 79 75 75 76 76 73 70 69 68 66 65 64 63 62 62 62 62 61 59 58 58 55 54 53 47 46 51 56 58 54 48 49 51 52 54 52 51 52 45 38 41 44 42 37 33 31
95 96 96 96 95 95 95 94 93 93 92 91 91 92 92 93 93 93 95 97 97 95 93 90 90 93 95 96 96 97 97 97 97 97 95 95 92 89 86 85 85 83 79 79 81 80 77 76 74 71 68 68 67 67 66 65 64 64 63 62 61 59 57 55 54 53 51 53 56 58 58 51 46 50 53 53 53 50 49 52 46 38 40 44 43 40 36 32
95 96 97 96 95 95 94 94 93 92 92 91 90 90 91 91 91 91 93 94 93 92 92 90 89 91 94 97 101 103 102 101 101 101 100 99 96 92 88 87 85 83 82 84 84 81 80 79 75 70 69 70 70 68 68 68 67 67 65 64 62 59 56 56 56 56 56 58 58 58 55 48 47 55 56 52 52 48 46 50 45 37 39 44 42 41 39 35
92 93 94 95 95 95 95 94 94 93 92 92 91 90 90 90 88 88 90 91 90 90 92 92 92 93 93 96 103 106 105 104 104 103 101 99 96 93 90 88 87 87 87 86 82 80 81 79 75 75 76 75 73 71 70 70 68 67 67 65 60 57 57 58 58 59 59 58 57 54 50 47 51 56 54 49 49 47 44 47 44 37 37 41 42 41 40 38
85 86 87 89 90 90 91 92 92 91 91 91 91 91 90 90 87 85 86 88 88 87 89 92 95 96 96 97 101 102 102 105 106 104 101 98 95 93 92 91 91 91 90 87 83 82 81 78 78 80 80 77 76 75 73 72 69 68 66 61 58 60 62 61 60 61 59 56 53 50 47 48 51 53 50 47 48 47 44 45 44 40 37 38 41 42 41 40
75 75 76 79 81 81 83 85 85 86 87 87 88 88 88 88 86 83 84 86 87 86 88 92 96 97 98 99 98 96 98 102 105 105 103 101 98 96 95 95 95 96 95 92 89 88 84 81 82 83 80 77 78 77 76 75 71 69 65 61 63 65 64 61 61 60 56 52 50 48 47 48 49 49 48 47 46 47 45 43 43 43 38 35 39 42 41 41
65 65 66 70 72 72 73 76 78 78 80 81 82 83 84 84 83 82 82 83 85 87 88 92 96 97 98 98 96 96 97 99 102 103 104 105 103 102 102 100 100 102 101 98 96 93 88 86 86 84 80 78 79 80 79 76 72 69 66 66 68 66 62 60 59 57 53 50 49 48 47 48 48 48 48 46 46 46 44 41 41 42 38 36 39 42 42 41
58 57 57 61 65 66 66 68 70 71 73 74 74 76 77 79 80 80 79 80 83 86 89 92 96 97 98 97 96 98 99 99 100 101 103 105 106 106 106 104 104 104 102 99 97 93 90 88 87 84 81 81 82 81 76 72 70 68 68 69 68 65 62 60 58 56 53 50 49 48 48 48 48 48 48 46 45 44 41 39 39 40 38 37 40 43 43 42
52 52 51 53 57 60 62 64 65 66 68 68 67 68 69 72 74 76 76 77 79 84 88 92 95 98 99 98 97 98 99 100 101 102 103 104 105 106 105 104 104 103 100 95 91 89 88 88 87 85 84 85 84 77 70 67 68 67 67 67 65 63 61 58 56 55 52 49 48 48 48 49 50 48 45 43 42 41 39 38 39 40 38 37 41 45 47 46
49 49 49 49 52 55 57 59 60 61 63 64 62 62 62 64 67 70 71 72 75 80 85 91 95 98 99 99 98 97 97 100 102 103 104 105 104 104 103 102 103 103 100 96 91 90 90 89 88 88 88 88 82 73 69 69 70 68 67 67 65 62 60 56 54 54 51 49 49 49 49 51 50 45 41 41 40 40 40 40 41 42 39 37 42 47 50 51
49 49 48 49 50 52 53 54 55 55 58 59 58 57 57 57 59 62 64 66 69 75 82 89 94 96 97 98 99 97 96 99 103 105 107 107 105 103 101 100 101 102 101 97 94 93 90 87 87 89 88 85 79 75 74 74 75 73 71 69 67 64 60 55 54 55 53 51 51 51 50 50 48 44 41 41 39 41 43 43 43 43 40 38 43 49 52 52
49 48 48 48 49 51 51 51 51 50 51 53 54 53 52 52 53 55 56 58 62 69 77 85 91 94 96 97 97 98 99 100 104 107 108 107 105 103 100 97 97 99 98 95 93 91 88 87 86 87 87 83 81 80 78 78 79 76 72 69 66 63 59 56 56 58 56 53 53 52 50 50 48 44 41 40 41 43 45 43 42 42 40 39 44 51 53 53
48 47 47 48 48 49 49 47 46 46 45 47 48 48 48 48 49 50 50 51 55 63 71 79 86 91 94 96 97 100 101 101 104 106 106 105 104 102 100 97 94 95 94 92 92 91 91 90 88 88 88 84 83 83 80 80 80 75 69 67 64 62 61 59 59 60 57 54 53 53 52 52 49 44 42 43 43 43 43 42 43 42 40 40 44 51 54 54
46 45 46 48 48 46 45 44 42 41 40 41 42 43 44 44 44 46 46 46 50 57 64 72 80 87 93 96 98 101 102 102 104 103 101 103 104 102 100 98 94 91 90 90 91 91 91 91 89 89 88 84 82 81 77 75 75 71 68 67 65 64 63 62 61 59 56 53 53 54 54 52 48 45 45 45 43 40 40 42 42 41 40 40 44 50 54 54
44 42 43 47 47 44 42 40 38 36 35 35 36 38 39 40 40 41 42 43 47 53 59 66 74 82 89 95 99 101 102 102 101 100 99 101 103 103 101 99 95 91 89 89 90 90 89 90 89 88 87 84 81 79 74 71 72 71 68 66 66 65 63 63 61 58 56 55 54 55 54 50 47 47 47 44 41 37 38 40 39 39 40 42 44 49 53 54
44 41 39 42 43 41 39 36 32 30 30 30 31 32 34 35 36 36 37 40 44 50 55 61 69 78 85 92 98 100 101 101 100 100 100 100 102 102 101 100 97 92 90 89 89 88 88 90 89 88 88 86 83 80 78 75 73 71 68 66 65 64 62 60 59 57 57 57 56 54 53 50 47 49 48 43 40 38 37 37 37 38 41 43 45 49 52 55
46 43 39 40 39 37 36 34 30 27 26 26 27 28 30 31 31 32 34 37 42 48 52 57 64 73 80 87 94 97 99 100 99 100 101 101 101 101 100 100 98 94 91 90 88 86 87 89 90 88 87 86 85 85 83 79 75 74 71 68 65 63 61 58 58 60 59 57 56 54 54 51 49 51 48 42 41 41 38 36 35 36 40 44 46 49 52 55
46 44 41 40 38 35 33 32 30 27 25 24 24 25 26 27 27 28 30 33 39 44 49 54 60 69 75 82 89 93 96 98 98 100 102 102 101 101 100 99 98 95 92 90 88 86 86 88 89 87 85 86 87 87 84 79 76 75 73 70 65 63 61 60 61 63 61 59 58 56 55 52 51 50 47 45 47 44 39 38 37 36 39 43 45 48 51 54
45 44 42 40 38 34 31 30 29 27 25 23 22 22 23 23 23 24 26 30 35 41 46 51 57 64 71 77 83 88 92 96 98 100 103 103 103 102 99 99 99 97 93 91 89 87 86 87 88 86 85 85 85 85 84 81 77 75 73 70 66 63 62 63 64 64 63 62 61 59 56 53 51 49 48 51 52 44 39 39 40 38 39 40 42 46 50 52
46 44 41 39 38 35 31 30 28 27 25 23 21 21 20 20 20 21 24 27 32 37 43 47 53 60 66 72 78 82 86 94 98 99 102 104 105 103 99 98 99 96 93 92 89 87 86 87 86 84 83 84 83 82 84 81 76 74 72 70 68 65 64 65 65 64 63 64 63 61 57 54 53 52 52 54 52 43 39 40 41 40 40 40 41 44 48 50
47 45 43 40 39 36 33 31 29 27 25 23 20 19 18 17 17 19 22 25 29 34 39 44 49 56 62 68 73 76 81 90 95 98 101 104 106 103 99 98 99 96 93 91 89 87 86 87 86 84 83 84 83 81 81 78 74 74 74 71 70 67 66 66 67 65 64 64 64 62 59 57 56 55 55 55 51 44 41 41 41 41 41 41 41 42 45 48
Wind_Direction
253 252 252 253 253 253 253 253 254 255 256 256 257 258 258 258 257 255 253 250 249 250 249 246 242 243 246 248 244 234 228 224 217 211 206 204 204 207 210 215 219 221 223 224 225 227 228 228 229 229 230 230 231 232 234 236 237 239 241 243 245 248 252 254 255 259 264 264 263 263 264 270 275 280 286 291 293 296 299 299 301 304 306 306 306 307 307 307
253 252 252 252 252 253 253 254 254 255 255 256 256 256 256 257 257 256 254 253 251 251 251 249 245 243 243 245 247 242 234 227 225 224 216 208 206 206 205 209 214 219 222 223 224 225 226 228 228 229 230 231 232 233 234 236 238 239 241 243 245 247 250 253 255 257 260 262 263 265 269 272 275 281 286 289 293 296 297 298 302 305 307 309 311 311 311 312
253 253 252 252 252 253 253 254 255 255 255 256 256 255 255 255 255 255 255 255 254 253 252 251 248 245 243 243 245 245 241 233 228 229 227 222 215 208 206 204 206 211 216 220 223 225 225 227 228 229 230 231 232 234 236 237 239 240 241 243 244 246 248 251 253 255 258 260 262 265 271 274 276 281 285 287 291 295 298 301 304 305 304 307 310 311 313 314
254 253 253 253 253 253 254 255 255 256 256 256 256 256 256 255 254 254 254 255 256 255 254 252 250 249 245 243 243 245 245 239 234 230 228 229 223 216 211 205 203 202 206 211 216 221 224 225 227 228 229 230 232 233 235 237 238 239 240 241 242 243 246 248 250 253 255 258 260 264 270 274 277 280 282 285 290 294 298 301 303 303 305 309 311 312 313 312
254 254 253 253 253 254 254 255 255 256 257 257 257 257 257 256 255 253 253 253 254 256 256 254 252 250 248 246 243 244 244 242 240 234 229 231 229 226 221 213 209 203 202 204 206 211 216 221 224 227 228 230 232 233 234 235 236 237 237 238 240 241 243 245 247 250 253 256 260 262 266 271 275 277 278 286 291 294 297 300 301 302 305 309 311 311 311 310
255 255 254 254 254 254 254 255 256 256 257 257 258 258 258 257 256 255 253 252 253 254 256 256 254 251 250 249 246 244 243 242 243 238 232 234 232 230 229 223 218 214 209 205 203 206 207 211 217 222 225 227 229 231 232 233 234 235 235 236 238 240 242 243 244 247 251 254 256 259 264 268 271 273 278 288 293 295 299 301 302 304 307 310 310 310 310 310
256 256 255 255 255 255 255 255 256 257 257 258 258 258 258 259 258 257 255 254 252 253 255 256 255 253 252 250 248 246 244 241 241 241 237 235 234 231 231 229 225 222 220 214 212 211 208 207 207 212 218 221 224 226 227 229 229 231 232 233 235 237 239 240 241 242 245 247 250 254 258 260 266 273 280 289 294 296 301 302 303 307 310 314 314 313 313 314
258 258 257 256 256 256 256 256 257 257 258 258 258 259 259 259 259 258 257 256 254 253 254 255 255 254 253 252 250 248 246 242 240 243 242 237 236 234 232 231 228 225 225 225 223 219 216 213 210 210 210 212 216 218 220 221 223 225 226 228 230 232 233 234 234 234 236 238 241 245 250 256 265 274 283 291 294 296 302 302 304 310 312 315 318 316 317 320
259 259 259 258 257 257 257 257 257 258 258 259 259 259 259 259 259 258 258 257 256 255 254 255 254 254 254 253 251 248 248 245 240 241 243 239 238 237 235 233 231 227 225 227 227 226 223 219 218 217 214 213 213 213 212 213 215 217 218 221 223 223 224 223 222 222 225 227 231 238 247 257 265 273 282 288 291 296 301 302 304 310 312 314 319 318 320 323
260 260 259 259 259 258 258 258 258 258 258 259 259 259 259 259 259 258 257 257 256 255 255 255 254 253 253 253 251 248 250 248 242 239 241 240 238 239 238 236 233 230 227 227 228 229 228 225 225 225 225 225 222 218 214 210 211 213 214 216 216 216 218 217 214 215 221 227 235 244 251 259 266 272 279 284 290 295 298 301 304 309 310 313 319 319 322 326
260 260 260 259 259 259 258 258 258 259 259 259 259 259 258 258 258 258 257 256 255 254 254 254 254 254 253 253 250 247 250 249 243 240 241 240 238 239 239 238 235 233 230 228 228 230 231 229 230 229 230 231 229 227 223 217 216 217 217 217 216 215 217 218 217 220 229 239 246 249 254 260 266 270 274 280 289 294 296 300 304 311 313 315 322 324 325 327
261 260 260 260 260 259 259 259 259 259 259 259 259 258 258 257 257 257 256 256 255 254 253 252 253 253 253 253 249 247 249 248 244 242 241 241 239 238 239 239 237 236 234 231 229 230 231 230 231 233 233 233 232 232 230 226 224 225 223 222 223 221 222 222 223 226 233 242 248 251 255 261 265 268 271 279 287 292 296 299 305 315 316 315 323 327 324 322
261 261 261 260 260 260 260 259 259 259 259 259 259 258 258 257 256 255 255 255 254 253 252 252 252 252 253 253 249 247 248 247 245 242 241 241 239 239 239 239 239 237 236 235 232 231 231 230 232 233 234 234 234 234 234 234 232 232 230 230 231 230 229 229 231 234 238 243 249 253 257 262 266 269 273 280 285 292 298 301 306 313 312 313 322 327 324 321
262 262 261 261 260 260 260 260 259 259 259 258 258 258 258 257 256 255 254 253 253 253 252 252 252 252 253 253 249 246 247 246 244 241 240 241 240 240 240 238 239 238 237 237 235 234 232 232 233 235 235 234 235 236 237 238 238 238 237 236 237 237 235 236 239 242 244 247 252 256 260 263 268 271 276 281 285 292 297 299 302 306 309 315 322 326 325 321
263 262 261 261 260 260 260 259 259 259 258 258 258 258 257 256 255 255 255 254 253 252 252 252 252 252 252 252 249 245 245 245 244 241 240 240 240 240 240 238 238 239 237 237 236 236 234 233 233 236 237 236 236 238 238 239 240 239 240 238 239 241 240 242 246 248 249 252 255 258 261 266 270 274 278 282 285 289 293 296 297 301 308 314 319 323 321 321
263 262 262 261 261 260 260 259 259 259 258 258 257 257 257 256 255 254 254 254 253 253 252 252 252 252 251 251 249 244 244 245 244 242 239 238 238 239 239 239 238 238 238 237 236 237 237 235 234 235 238 239 238 239 239 241 242 240 241 241 241 242 243 245 249 251 253 255 258 260 264 268 272 275 277 280 284 286 288 293 294 297 305 308 312 316 315 318
264 263 262 261 261 260 260 259 259 259 258 258 257 256 256 256 255 254 254 254 254 253 253 252 252 251 251 250 248 244 242 243 243 241 238 236 236 238 238 238 238 238 238 238 237 237 237 237 236 235 237 239 241 241 241 243 241 238 239 240 240 241 242 245 248 251 254 257 260 263 266 267 270 272 273 276 279 281 282 285 285 291 302 304 306 308 309 314
264 264 263 262 261 260 260 259 259 259 258 258 257 256 256 256 255 254 254 254 253 253 253 252 251 250 250 249 247 243 240 240 241 241 239 237 236 236 237 238 238 238 239 238 238 237 237 237 237 237 237 238 239 240 241 240 238 236 238 241 242 243 244 247 250 254 256 258 261 264 265 265 267 269 271 272 273 275 277 278 278 283 293 295 294 299 304 308
264 264 263 262 261 261 260 259 259 259 258 258 257 257 256 256 255 254 254 254 252 252 252 251 251 250 249 248 246 244 241 240 240 242 241 238 236 235 236 238 238 237 238 239 238 237 236 237 238 240 240 238 236 236 239 240 239 238 240 243 245 246 248 250 252 256 258 259 261 262 262 263 265 267 269 269 269 271 273 274 276 278 284 286 288 295 299 300
264 263 263 262 261 261 260 259 259 258 258 258 257 257 256 256 255 254 253 254 253 252 251 250 250 250 249 248 247 245 242 240 240 241 242 239 237 235 235 237 238 237 237 238 238 237 237 237 239 240 240 239 237 237 240 242 242 242 243 246 248 249 250 251 253 255 257 258 259 260 262 263 264 265 267 267 267 268 269 271 274 271 273 279 284 291 292 288
264 263 263 262 262 261 260 259 259 258 258 257 257 257 256 255 255 254 253 254 254 252 251 250 248 250 251 248 246 245 242 240 240 240 241 241 238 236 235 236 237 237 237 237 237 237 238 238 239 239 239 239 240 240 242 244 244 243 245 247 249 251 252 253 253 254 256 257 259 260 261 262 263 262 263 266 266 266 267 269 270 267 266 271 276 281 282 280
264 264 263 262 262 261 261 260 259 258 258 257 256 256 256 255 254 254 253 254 255 253 251 251 248 248 250 248 246 246 244 242 241 241 241 241 240 238 236 236 236 236 236 236 237 237 237 239 239 238 238 239 240 242 243 244 245 244 245 247 249 251 251 252 253 253 254 255 256 257 258 259 260 260 260 263 264 262 264 268 268 266 263 263 266 268 271 273
265 264 263 263 262 261 261 260 259 258 258 257 256 256 255 255 254 254 253 252 254 254 251 250 249 247 248 249 246 244 245 244 242 242 241 241 241 240 238 237 236 236 237 237 237 236 237 239 239 238 239 240 241 242 243 245 246 246 246 248 250 250 250 250 250 250 251 251 252 254 256 258 260 262 261 261 261 261 263 267 268 266 262 258 259 258 258 261
266 265 264 263 263 262 261 261 260 258 258 257 256 256 255 255 254 253 253 251 252 254 252 249 249 247 246 247 246 243 244 245 244 243 242 242 242 241 239 239 238 237 237 237 237 236 237 239 239 239 240 241 242 243 245 246 247 247 247 247 249 249 248 248 248 249 250 250 252 254 256 259 261 263 262 260 260 261 263 264 264 266 265 259 257 256 253 256
266 265 264 264 263 262 261 260 260 259 258 257 256 255 255 254 254 253 252 251 250 251 252 249 247 246 246 246 247 245 243 244 244 244 243 242 242 242 240 239 239 239 237 238 237 236 238 240 239 239 240 241 242 243 244 245 245 246 246 245 247 248 247 247 248 249 250 251 252 253 255 257 260 262 261 261 260 259 261 261 260 265 266 261 258 256 253 255
266 266 265 264 263 263 261 260 260 259 258 257 256 255 254 254 253 253 251 251 249 248 250 250 246 245 246 247 246 245 243 243 244 244 243 242 242 242 241 240 240 240 238 238 237 236 239 240 239 239 239 240 241 242 243 244 244 245 245 244 244 246 246 247 248 249 250 251 250 252 255 256 258 261 262 261 260 258 258 259 259 261 264 262 258 256 254 253
268 267 266 265 264 263 263 261 260 259 258 257 257 255 254 253 252 252 251 250 248 247 246 248 247 245 245 246 246 245 244 243 244 244 243 242 242 242 242 240 240 240 239 238 237 238 240 240 238 238 238 238 240 241 242 242 242 243 244 243 244 246 247 248 249 250 251 252 251 253 255 256 257 260 261 260 259 257 255 255 256 258 261 262 257 254 254 251
269 268 267 266 264 263 263 263 262 260 259 258 257 256 255 254 252 251 250 248 248 246 245 245 247 247 245 246 247 246 244 242 243 244 243 241 241 241 241 241 240 239 239 238 236 237 238 238 237 237 238 238 238 239 240 241 241 242 243 244 244 246 248 249 250 251 251 252 254 254 254 256 256 256 257 258 258 258 254 251 251 254 258 259 255 252 252 250
270 269 268 267 266 264 263 263 263 262 261 259 258 256 255 254 252 251 249 248 247 246 245 244 245 247 247 246 246 247 245 243 243 244 245 243 242 242 241 241 240 239 239 238 236 237 239 238 238 238 238 238 238 239 240 240 241 241 243 243 244 246 248 249 250 251 252 253 255 256 254 253 252 253 254 257 258 257 254 250 247 250 255 256 253 249 249 248
272 271 270 269 268 267 265 264 263 262 262 261 259 258 256 254 252 251 249 248 248 246 244 244 244 245 246 245 245 246 246 244 243 243 244 244 242 241 240 240 239 239 240 239 237 238 239 239 238 239 239 238 239 240 240 240 240 241 243 244 245 247 248 250 251 252 252 254 256 256 253 250 249 251 253 255 255 255 255 253 247 245 251 255 253 247 246 246
274 274 273 272 271 270 269 267 265 263 262 261 260 259 257 255 252 251 249 248 248 247 244 243 243 243 244 245 244 244 244 244 242 242 243 243 242 240 240 240 240 240 240 240 239 239 240 240 239 239 239 238 239 240 241 241 241 243 244 246 247 248 249 251 252 253 254 255 253 251 250 249 248 250 251 252 253 255 257 255 250 243 247 253 252 247 243 244
277 276 276 275 273 272 271 270 268 266 264 262 261 259 257 256 253 251 249 248 248 248 246 243 242 243 243 244 243 243 242 241 241 240 240 241 241 239 239 240 240 240 239 239 239 239 239 240 239 238 238 238 239 240 241 242 243 245 246 247 248 249 250 251 252 253 252 249 247 247 249 251 252 252 251 251 253 255 256 256 254 247 245 250 252 249 243 241
280 279 278 277 276 275 273 272 270 269 267 264 262 260 258 256 254 251 249 248 248 249 248 245 242 241 242 242 242 241 240 240 239 238 237 238 238 237 237 237 238 238 237 236 235 235 236 236 236 236 237 238 239 239 240 241 242 243 244 245 246 247 247 248 248 248 246 244 245 248 251 253 255 254 251 250 253 254 255 257 258 253 247 248 250 249 244 239
280 280 279 278 277 276 275 273 272 270 268 266 264 261 258 256 253 251 250 248 248 247 247 245 242 239 238 239 240 239 238 238 238 238 236 236 235 235 234 235 237 237 236 235 234 234 235 235 235 235 235 236 237 237 238 238 238 239 239 239 240 241 243 243 244 244 243 243 246 249 253 254 252 251 251 251 253 253 253 256 257 253 248 248 247 247 245 238
280 279 278 278 277 276 274 273 272 270 268 266 265 262 260 257 253 251 250 248 246 244 244 243 241 238 235 234 236 237 237 237 237 238 237 237 236 235 234 234 234 235 234 234 234 234 235 235 234 233 232 232 232 233 234 235 236 237 237 238 239 241 241 242 243 243 244 245 248 251 254 253 251 252 253 254 255 253 251 252 253 248 245 246 244 242 242 238
281 279 278 277 276 275 273 272 271 269 267 266 264 262 260 258 254 250 248 247 245 242 242 241 240 239 235 233 234 235 236 237 237 238 238 237 237 236 235 233 233 233 233 233 232 232 233 233 233 233 232 232 232 231 232 232 233 234 236 237 238 239 240 241 242 244 246 248 250 252 252 251 250 252 253 252 252 251 248 248 248 243 238 239 241 238 236 237
283 281 279 277 275 274 273 271 270 268 266 265 263 261 259 257 254 251 247 246 244 241 239 240 240 238 236 234 233 233 234 236 236 236 236 236 235 235 234 233 232 232 231 230 229 229 229 229 230 231 231 231 232 232 232 232 231 232 233 234 235 237 239 240 242 245 248 249 250 250 249 248 248 250 250 249 249 249 247 245 245 243 235 230 235 236 230 231
286 284 282 280 277 275 273 271 270 268 266 264 262 261 259 257 254 251 247 244 243 241 238 238 238 238 237 235 232 231 231 233 235 235 235 234 233 232 232 231 231 231 230 228 226 226 225 226 228 229 229 229 230 231 231 231 232 232 233 234 235 238 239 240 243 245 246 246 247 247 246 247 247 247 248 247 246 248 247 245 245 244 238 226 227 232 227 225
288 286 284 282 280 278 276 273 271 270 267 265 262 260 258 256 254 251 247 243 241 239 237 236 237 236 236 234 232 229 228 229 232 233 234 233 233 232 232 231 232 232 232 230 228 226 225 225 227 228 228 229 229 230 230 231 232 233 234 236 238 239 240 240 242 243 244 245 246 246 246 246 245 244 244 245 246 247 247 246 245 243 238 227 223 227 223 218
290 286 283 281 280 279 277 276 274 272 270 267 264 261 258 255 253 251 247 243 240 238 236 234 235 235 234 233 231 229 227 227 228 230 232 232 232 232 232 232 233 234 234 233 232 231 229 227 227 228 228 229 229 230 231 232 233 234 235 238 240 240 241 242 243 244 246 246 247 247 246 245 244 242 244 246 247 248 247 245 244 241 236 228 223 224 221 215
295 292 288 286 284 280 278 276 274 273 271 270 267 263 259 255 252 250 247 243 239 236 234 232 233 233 232 231 231 229 226 225 226 227 230 231 231 230 230 230 232 233 234 234 232 232 231 229 228 228 228 230 230 229 229 230 231 231 232 234 235 236 237 239 241 243 244 244 245 245 244 244 243 242 242 243 243 243 242 239 239 237 231 225 221 223 222 215
304 302 300 297 294 289 285 281 277 273 271 270 269 266 262 258 253 250 247 243 238 235 232 230 230 231 231 230 229 229 227 225 225 224 226 229 229 229 228 227 229 231 232 233 232 232 232 231 230 230 230 230 230 228 226 228 228 228 228 230 231 232 233 233 236 239 239 238 240 241 241 242 242 238 236 237 238 238 238 235 235 235 229 221 219 221 223 218
309 307 306 304 301 296 293 289 284 278 274 270 268 266 263 260 256 251 246 241 237 233 231 229 229 229 230 229 228 227 226 225 224 224 224 226 228 228 228 226 226 229 230 231 233 233 234 233 231 232 232 230 229 227 225 227 228 228 227 229 231 232 233 232 233 236 236 234 236 238 239 241 240 235 234 234 234 235 237 236 235 235 229 221 218 219 222 220
312 311 311 309 305 301 298 294 289 284 278 272 269 266 263 260 257 253 247 240 235 231 229 228 228 227 228 228 226 226 225 224 224 224 222 224 226 227 228 226 225 226 227 228 229 231 232 232 231 231 232 230 229 229 226 227 230 230 229 231 232 233 233 233 233 235 236 235 235 236 238 240 238 235 233 233 232 233 236 237 235 235 231 224 221 220 222 222
317 318 320 317 312 308 304 300 295 289 283 276 271 267 264 260 257 253 248 241 234 230 227 226 226 225 226 226 225 224 224 223 224 223 221 222 224 225 227 226 224 224 225 225 227 227 229 231 231 232 232 231 230 231 230 230 232 233 231 231 232 232 232 233 233 235 237 236 235 236 239 240 239 237 235 234 233 233 236 238 236 235 232 226 222 223 224 225
322 324 328 326 319 313 309 304 300 295 288 282 276 270 266 262 258 253 248 241 234 230 226 224 224 224 224 224 224 224 223 223 222 223 221 220 221 222 224 226 224 222 222 223 224 225 226 228 230 232 233 233 231 232 231 230 231 232 231 230 230 231 231 232 233 233 234 234 233 235 238 239 239 239 238 236 234 232 233 237 236 233 231 225 221 223 224 226
328 328 332 331 325 319 314 309 305 301 294 287 281 274 268 263 259 253 247 239 234 230 226 222 222 223 222 223 223 223 223 222 221 221 221 220 220 220 221 224 223 221 220 221 222 222 223 225 226 229 231 232 231 231 229 227 227 229 229 227 228 230 230 231 233 233 231 232 232 234 236 236 235 238 238 235 233 229 227 232 233 229 228 225 221 221 223 224
333 332 335 335 331 327 321 317 313 309 301 293 286 278 271 265 259 254 246 238 233 230 227 222 220 221 221 222 222 222 222 221 220 219 220 219 219 218 219 221 222 221 220 220 220 220 222 223 224 224 227 230 230 230 228 226 225 226 226 224 224 226 228 228 230 231 230 230 231 232 234 233 232 235 237 234 232 226 218 222 226 226 226 224 221 220 222 223
337 337 339 340 338 335 330 324 321 318 311 302 293 284 275 269 262 254 246 239 233 230 227 222 220 220 221 221 222 221 221 221 219 218 219 219 218 217 217 218 220 220 219 218 218 218 220 222 223 222 224 227 230 230 230 228 226 226 227 225 222 223 225 225 226 228 229 228 229 230 231 231 232 235 236 234 231 224 215 217 222 223 225 225 222 222 222 224
341 342 343 344 343 342 337 332 328 325 320 311 300 289 280 273 265 255 246 238 233 230 226 223 220 220 220 220 221 220 219 220 219 217 218 218 218 216 214 215 218 218 218 217 216 216 218 221 222 221 221 224 227 230 231 229 227 226 227 228 225 222 224 225 225 226 228 228 229 229 229 231 232 233 234 234 233 224 214 218 222 223 226 226 224 223 223 224
344 344 347 349 349 348 344 339 335 331 326 318 308 297 286 277 268 257 246 238 233 230 227 223 220 220 219 219 220 219 218 219 219 217 217 217 218 216 213 213 216 217 217 216 214 214 216 219 221 220 220 222 224 227 230 229 227 227 227 229 228 224 223 226 227 227 227 228 229 229 228 229 230 231 231 234 234 224 212 216 222 224 227 228 225 225 225 225
348 348 350 353 354 354 351 345 339 334 329 323 314 304 294 284 270 256 247 239 232 229 228 224 220 220 219 219 219 219 217 217 218 217 217 217 218 216 212 211 213 215 216 216 213 212 214 217 219 218 218 220 221 224 227 227 226 226 226 227 228 226 223 224 226 227 227 227 229 230 229 228 228 229 230 232 233 226 212 212 221 227 229 229 228 226 226 226
Height
10957 10957 10957 10958 10959 10960 10960 10961 10962 10963 10963 10964 10965 10966 10967 10968 10968 10969 10971 10972 10973 10974 10975 10975 10976 10977 10977 10977 10977 10978 10978 10978 10978 10978 10978 10977 10977 10977 10978 10979 10980 10981 10982 10983 10984 10986 10987 10988 10989 10991 10992 10994 10995 10996 10997 10997 10999 11001 11003 11004 11005 11005 11005 11006 11007 11007 11008 11009 11009 11011 11010 11010 11010 11009 11007 11006 11005 11005 11003 11000 11000 10999 10997 10996 10996 10995 10994 10994
10953 10954 10954 10954 10955 10956 10957 10958 10959 10959 10960 10961 10962 10963 10964 10965 10966 10967 10968 10969 10971 10972 10973 10973 10974 10975 10976 10976 10976 10976 10976 10977 10977 10977 10977 10977 10977 10977 10977 10977 10978 10979 10980 10981 10982 10983 10984 10985 10986 10987 10989 10990 10991 10993 10994 10995 10997 10999 11001 11002 11003 11004 11004 11004 11004 11004 11006 11006 11006 11007 11008 11008 11008 11007 11007 11005 11003 11002 11002 11000 10999 10998 10996 10995 10995 10994 10993 10992
10950 10950 10951 10951 10952 10953 10953 10954 10955 10956 10956 10957 10959 10960 10961 10962 10963 10964 10965 10967 10968 10969 10970 10971 10972 10972 10973 10974 10974 10974 10975 10976 10976 10976 10976 10977 10976 10976 10976 10976 10977 10977 10978 10979 10980 10981 10982 10983 10984 10985 10986 10987 10989 10990 10991 10993 10995 10997 10999 11000 11000 11001 11001 11002 11002 11002 11003 11004 11005 11004 11005 11006 11006 11006 11006 11005 11002 11000 11000 11000 10998 10997 10996 10994 10994 10993 10992 10991
10946 10946 10947 10947 10948 10949 10950 10951 10951 10952 10953 10954 10955 10956 10958 10959 10960 10961 10962 10964 10965 10966 10967 10968 10969 10970 10971 10972 10972 10972 10972 10973 10974 10975 10975 10975 10975 10975 10975 10976 10976 10976 10977 10977 10978 10978 10979 10980 10981 10982 10983 10984 10986 10987 10988 10990 10992 10994 10996 10996 10997 10997 10998 11000 11000 11000 11001 11001 11003 11003 11003 11004 11004 11005 11004 11003 11002 11000 10999 10999 10997 10996 10995 10994 10993 10992 10992 10990
10942 10942 10942 10943 10944 10945 10946 10947 10947 10948 10949 10950 10951 10952 10954 10955 10956 10958 10959 10960 10962 10963 10964 10965 10966 10967 10968 10969 10970 10970 10970 10971 10972 10972 10973 10973 10974 10974 10974 10975 10975 10975 10975 10975 10976 10977 10977 10978 10979 10979 10980 10982 10983 10984 10986 10987 10989 10990 10992 10993 10993 10994 10995 10997 10998 10998 10998 10999 11001 11001 11002 11002 11003 11004 11003 11002 11000 10999 10999 10998 10997 10995 10994 10993 10992 10991 10991 10990
10937 10937 10938 10938 10939 10940 10941 10942 10943 10944 10945 10946 10947 10948 10950 10951 10953 10954 10956 10957 10958 10959 10960 10961 10963 10964 10965 10966 10967 10967 10967 10969 10969 10969 10971 10972 10973 10973 10973 10974 10974 10974 10974 10974 10975 10975 10976 10976 10977 10977 10978 10979 10980 10981 10982 10984 10985 10987 10988 10989 10990 10990 10992 10994 10996 10996 10996 10997 10999 10999 11001 11002 11002 11002 11002 11001 10999 10998 10998 10996 10995 10995 10994 10993 10992 10990 10989 10989
10932 10933 10933 10934 10934 10936 10937 10937 10938 10939 10940 10941 10942 10944 10945 10947 10948 10950 10952 10953 10954 10956 10957 10958 10959 10960 10961 10962 10963 10963 10965 10966 10966 10966 10969 10970 10970 10971 10971 10972 10972 10973 10973 10973 10974 10974 10974 10975 10975 10976 10976 10977 10978 10979 10980 10981 10982 10983 10985 10986 10986 10987 10989 10991 10993 10994 10994 10995 10997 10998 10999 11000 11001 11000 11000 11000 10999 10997 10997 10995 10994 10993 10993 10992 10991 10990 10988 10988
10927 10928 10928 10928 10929 10931 10931 10932 10933 10934 10935 10936 10937 10939 10940 10942 10943 10945 10947 10948 10950 10952 10953 10954 10955 10956 10957 10958 10959 10960 10961 10962 10964 10965 10965 10966 10967 10968 10969 10969 10970 10971 10972 10972 10972 10972 10973 10973 10974 10974 10975 10976 10977 10977 10978 10979 10980 10981 10982 10983 10984 10985 10987 10989 10990 10991 10993 10994 10995 10996 10997 10998 10999 10999 10999 10999 10998 10996 10996 10995 10993 10993 10992 10991 10990 10989 10988 10987
10922 10922 10923 10923 10924 10925 10926 10927 10928 10929 10930 10931 10932 10933 10935 10937 10938 10940 10942 10944 10945 10947 10949 10950 10951 10952 10953 10954 10954 10956 10957 10958 10961 10962 10961 10962 10964 10965 10966 10967 10968 10969 10970 10970 10971 10971 10971 10972 10972 10973 10974 10975 10975 10976 10977 10978 10979 10979 10980 10981 10982 10984 10985 10987 10988 10990 10991 10993 10994 10995 10996 10996 10997 10998 10998 10998 10997 10995 10995 10994 10993 10992 10991 10990 10989 10988 10987 10987
10916 10916 10917 10917 10917 10918 10919 10920 10921 10922 10924 10925 10926 10927 10929 10931 10932 10934 10936 10938 10940 10942 10944 10945 10946 10948 10949 10949 10949 10952 10954 10953 10956 10957 10957 10959 10960 10961 10962 10963 10965 10966 10967 10968 10968 10969 10970 10971 10972 10972 10973 10973 10973 10975 10976 10977 10978 10979 10979 10980 10981 10983 10984 10985 10987 10988 10989 10991 10992 10993 10994 10995 10995 10996 10996 10996 10995 10994 10993 10993 10992 10992 10991 10990 10989 10987 10987 10987
10909 10910 10910 10910 10910 10911 10913 10914 10914 10916 10917 10918 10919 10921 10923 10924 10926 10928 10930 10932 10934 10937 10939 10940 10941 10942 10944 10943 10944 10950 10949 10947 10950 10953 10953 10955 10956 10958 10958 10959 10961 10963 10964 10965 10966 10967 10968 10969 10970 10971 10971 10971 10972 10973 10974 10976 10977 10978 10979 10980 10981 10982 10983 10984 10986 10987 10988 10989 10990 10991 10992 10993 10994 10994 10995 10995 10995 10993 10992 10992 10992 10991 10991 10989 10988 10987 10987 10986
10902 10903 10903 10903 10903 10904 10906 10907 10907 10909 10910 10911 10912 10914 10916 10918 10920 10921 10923 10926 10928 10931 10933 10935 10936 10937 10939 10937 10939 10946 10943 10941 10946 10948 10949 10950 10952 10954 10953 10955 10957 10959 10961 10962 10963 10964 10966 10967 10968 10969 10969 10970 10971 10972 10972 10974 10975 10976 10977 10978 10980 10981 10982 10983 10984 10985 10986 10987 10988 10989 10990 10991 10992 10992 10993 10995 10994 10993 10992 10991 10991 10990 10990 10989 10988 10987 10986 10986
10895 10896 10896 10896 10896 10897 10898 10899 10900 10901 10902 10904 10905 10907 10908 10910 10913 10915 10917 10919 10921 10924 10926 10929 10931 10932 10933 10930 10935 10941 10937 10937 10941 10943 10944 10945 10947 10949 10949 10951 10952 10955 10956 10958 10960 10961 10963 10964 10965 10966 10967 10969 10969 10970 10971 10972 10973 10974 10976 10977 10978 10979 10980 10981 10983 10983 10985 10986 10986 10987 10988 10989 10990 10990 10992 10994 10993 10992 10992 10990 10990 10989 10989 10988 10988 10987 10987 10987
10888 10888 10889 10889 10889 10889 10890 10891 10892 10893 10895 10896 10898 10899 10900 10902 10906 10908 10910 10912 10914 10917 10919 10923 10924 10926 10926 10923 10930 10936 10932 10933 10934 10936 10940 10941 10942 10944 10944 10947 10948 10950 10952 10954 10956 10958 10959 10961 10962 10963 10965 10966 10966 10968 10969 10970 10971 10973 10974 10976 10976 10976 10978 10980 10981 10981 10982 10983 10984 10985 10986 10987 10988 10988 10990 10992 10992 10991 10992 10990 10989 10989 10988 10988 10987 10987 10987 10987
10880 10880 10880 10881 10881 10881 10882 10883 10884 10885 10887 10888 10890 10891 10892 10895 10898 10901 10903 10905 10907 10910 10912 10916 10917 10920 10919 10917 10925 10929 10926 10926 10927 10931 10936 10936 10937 10938 10939 10942 10943 10945 10947 10949 10951 10953 10955 10958 10959 10960 10961 10962 10964 10966 10967 10968 10969 10971 10972 10973 10973 10974 10976 10978 10978 10979 10980 10981 10982 10983 10984 10985 10986 10987 10988 10990 10990 10990 10991 10990 10988 10988 10987 10988 10987 10987 10987 10987
10871 10871 10872 10872 10872 10873 10874 10875 10876 10876 10878 10880 10882 10883 10884 10886 10890 10893 10895 10897 10900 10902 10905 10909 10910 10913 10912 10912 10918 10921 10920 10920 10922 10927 10930 10930 10931 10932 10934 10936 10938 10940 10942 10945 10947 10949 10951 10953 10955 10956 10957 10959 10961 10963 10964 10965 10967 10968 10969 10969 10970 10972 10974 10976 10976 10976 10978 10979 10980 10980 10982 10983 10983 10984 10986 10988 10988 10988 10989 10989 10987 10987 10987 10987 10987 10987 10986 10987
10862 10862 10862 10863 10863 10864 10865 10866 10867 10868 10869 10870 10872 10874 10876 10878 10881 10886 10887 10889 10892 10894 10898 10901 10904 10906 10905 10905 10909 10913 10915 10914 10916 10919 10920 10923 10925 10926 10928 10930 10932 10935 10937 10940 10943 10944 10946 10948 10951 10952 10954 10956 10957 10959 10961 10961 10962 10964 10964 10965 10967 10970 10972 10974 10973 10974 10976 10977 10977 10979 10980 10981 10981 10982 10983 10986 10987 10986 10988 10988 10987 10987 10987 10986 10986 10986 10986 10986
10853 10852 10852 10853 10854 10854 10855 10856 10857 10858 10860 10861 10863 10865 10867 10868 10872 10877 10878 10880 10883 10886 10890 10893 10897 10899 10897 10898 10901 10904 10907 10907 10909 10911 10913 10917 10919 10921 10923 10924 10927 10930 10932 10935 10937 10939 10942 10943 10946 10948 10951 10952 10952 10954 10954 10953 10955 10959 10961 10962 10965 10968 10970 10971 10971 10972 10974 10975 10975 10977 10977 10978 10978 10979 10980 10983 10985 10985 10986 10987 10987 10987 10987 10986 10985 10985 10985 10986
10842 10842 10841 10842 10843 10843 10844 10846 10847 10848 10850 10851 10853 10855 10858 10859 10862 10868 10870 10870 10874 10878 10881 10886 10889 10889 10888 10890 10891 10895 10899 10901 10904 10905 10906 10910 10912 10916 10917 10918 10922 10924 10927 10929 10930 10933 10936 10939 10943 10945 10944 10944 10945 10947 10946 10947 10952 10957 10958 10960 10963 10965 10968 10968 10969 10970 10971 10972 10973 10974 10974 10975 10976 10977 10977 10980 10983 10983 10984 10984 10985 10987 10986 10985 10985 10985 10986 10987
10831 10831 10830 10830 10831 10832 10833 10835 10836 10837 10839 10841 10842 10844 10847 10850 10852 10858 10862 10861 10865 10869 10872 10877 10880 10879 10879 10881 10883 10887 10891 10894 10898 10898 10898 10902 10906 10910 10912 10913 10915 10919 10922 10921 10924 10928 10931 10937 10939 10936 10934 10936 10940 10942 10942 10945 10950 10954 10956 10958 10960 10962 10964 10965 10966 10967 10968 10969 10970 10970 10971 10973 10974 10975 10975 10977 10980 10981 10982 10983 10984 10986 10986 10984 10984 10985 10986 10986
10819 10819 10819 10818 10819 10820 10820 10823 10825 10826 10828 10830 10832 10833 10836 10840 10842 10847 10853 10854 10854 10858 10863 10867 10872 10872 10868 10870 10874 10875 10881 10888 10890 10890 10890 10892 10897 10902 10906 10907 10909 10912 10913 10913 10918 10923 10929 10933 10929 10925 10928 10932 10935 10938 10939 10943 10947 10950 10953 10954 10956 10958 10960 10960 10962 10964 10965 10966 10966 10967 10969 10970 10971 10973 10973 10974 10977 10978 10979 10981 10982 10983 10985 10984 10984 10985 10985 10985
10806 10806 10806 10805 10806 10807 10807 10809 10812 10814 10815 10817 10821 10822 10823 10828 10831 10835 10843 10847 10843 10844 10853 10855 10860 10864 10854 10855 10864 10865 10873 10880 10880 10881 10882 10884 10890 10896 10898 10899 10903 10903 10903 10909 10915 10920 10925 10922 10915 10918 10925 10928 10931 10933 10936 10938 10941 10946 10949 10950 10952 10954 10955 10956 10958 10959 10961 10963 10963 10963 10965 10966 10968 10970 10971 10972 10974 10976 10977 10979 10980 10980 10982 10983 10983 10983 10984 10984
10793 10792 10793 10793 10793 10794 10794 10795 10797 10801 10802 10804 10807 10809 10812 10815 10819 10824 10831 10839 10835 10829 10839 10844 10846 10853 10845 10841 10850 10857 10864 10868 10869 10872 10874 10879 10883 10885 10889 10893 10895 10895 10899 10907 10910 10914 10916 10908 10907 10917 10922 10923 10926 10928 10931 10934 10937 10941 10944 10947 10947 10948 10950 10952 10953 10954 10956 10958 10959 10960 10962 10963 10964 10967 10969 10970 10972 10973 10975 10977 10977 10978 10980 10982 10981 10982 10982 10983
10779 10778 10779 10779 10778 10780 10782 10781 10782 10786 10788 10791 10793 10795 10799 10802 10806 10813 10818 10828 10828 10815 10819 10832 10834 10838 10833 10825 10833 10851 10858 10856 10860 10864 10867 10873 10873 10874 10881 10884 10885 10889 10896 10900 10902 10907 10905 10898 10906 10915 10917 10919 10922 10924 10927 10930 10933 10936 10939 10942 10941 10941 10944 10946 10947 10949 10952 10955 10956 10956 10959 10960 10961 10964 10966 10968 10970 10971 10973 10975 10974 10974 10977 10980 10979 10980 10980 10981
10764 10764 10764 10765 10763 10764 10768 10768 10766 10770 10773 10776 10779 10781 10785 10789 10793 10800 10806 10814 10816 10803 10800 10814 10821 10820 10815 10814 10828 10844 10847 10847 10851 10853 10856 10862 10862 10865 10871 10874 10877 10884 10890 10891 10893 10899 10895 10894 10904 10910 10911 10914 10916 10919 10922 10924 10927 10929 10933 10935 10934 10934 10937 10940 10942 10945 10948 10952 10953 10953 10956 10957 10957 10960 10962 10964 10967 10970 10971 10972 10972 10971 10973 10977 10978 10977 10978 10979
10749 10748 10748 10750 10749 10747 10750 10753 10751 10754 10757 10760 10764 10767 10771 10776 10780 10786 10794 10799 10797 10791 10787 10792 10801 10805 10803 10808 10819 10825 10833 10842 10841 10838 10846 10852 10853 10855 10860 10867 10872 10875 10880 10880 10884 10892 10889 10890 10899 10903 10904 10907 10910 10914 10916 10917 10921 10924 10925 10927 10926 10927 10931 10935 10937 10940 10944 10948 10949 10950 10952 10954 10954 10956 10957 10959 10962 10967 10970 10971 10971 10969 10969 10973 10976 10975 10976 10977
10733 10733 10732 10734 10734 10732 10732 10734 10736 10738 10741 10743 10748 10753 10756 10761 10766 10771 10779 10782 10776 10774 10774 10774 10781 10790 10794 10797 10803 10813 10829 10836 10826 10825 10837 10841 10841 10845 10851 10859 10864 10865 10868 10870 10879 10888 10882 10882 10891 10894 10895 10900 10906 10908 10908 10909 10915 10918 10917 10918 10920 10922 10926 10929 10932 10937 10941 10942 10945 10948 10949 10950 10952 10953 10953 10953 10957 10962 10967 10969 10969 10967 10965 10969 10974 10974 10974 10976
10718 10717 10716 10716 10717 10719 10717 10716 10718 10721 10724 10728 10731 10736 10740 10745 10751 10756 10762 10762 10753 10753 10759 10763 10767 10775 10784 10790 10795 10806 10819 10820 10813 10816 10823 10827 10831 10836 10842 10849 10853 10854 10855 10862 10876 10876 10867 10873 10882 10884 10887 10895 10900 10898 10898 10903 10909 10911 10908 10911 10915 10916 10921 10924 10927 10933 10936 10938 10942 10944 10946 10947 10949 10949 10947 10948 10952 10956 10961 10966 10966 10965 10963 10965 10970 10972 10972 10974
10702 10701 10700 10699 10698 10702 10703 10702 10703 10702 10704 10710 10714 10718 10722 10728 10734 10739 10744 10739 10730 10734 10745 10753 10760 10766 10774 10783 10788 10792 10800 10807 10807 10805 10807 10816 10823 10826 10833 10838 10839 10841 10844 10856 10867 10862 10859 10868 10873 10875 10883 10890 10891 10890 10892 10899 10904 10903 10901 10904 10909 10911 10916 10919 10923 10928 10930 10935 10939 10939 10941 10943 10943 10944 10943 10945 10948 10949 10952 10959 10964 10964 10961 10961 10967 10971 10971 10972
10688 10685 10684 10683 10682 10683 10685 10688 10688 10687 10687 10691 10695 10699 10703 10709 10716 10719 10723 10717 10707 10716 10733 10744 10753 10757 10760 10769 10777 10780 10786 10793 10796 10793 10794 10804 10811 10814 10820 10822 10824 10832 10838 10846 10856 10855 10854 10859 10863 10871 10879 10882 10883 10883 10887 10894 10896 10894 10895 10899 10904 10908 10911 10914 10919 10921 10926 10934 10935 10931 10932 10935 10938 10939 10939 10941 10941 10940 10944 10952 10961 10964 10959 10957 10963 10968 10969 10970
10672 10670 10668 10668 10667 10665 10666 10669 10671 10671 10672 10674 10676 10680 10684 10689 10696 10699 10701 10697 10688 10698 10720 10735 10743 10747 10749 10757 10765 10768 10771 10775 10779 10781 10782 10788 10797 10802 10806 10810 10817 10825 10830 10839 10850 10848 10843 10850 10860 10868 10871 10874 10876 10878 10882 10887 10888 10889 10891 10895 10899 10903 10905 10910 10914 10916 10924 10931 10926 10920 10920 10926 10934 10936 10935 10936 10934 10935 10938 10943 10954 10962 10958 10954 10958 10964 10967 10967
10656 10653 10651 10650 10650 10649 10648 10649 10651 10652 10655 10657 10658 10661 10664 10668 10673 10678 10680 10678 10676 10687 10708 10726 10734 10736 10739 10744 10747 10750 10753 10756 10759 10764 10768 10772 10782 10790 10796 10802 10807 10813 10824 10834 10837 10833 10835 10845 10853 10857 10861 10866 10869 10872 10876 10879 10882 10884 10886 10890 10894 10897 10900 10905 10908 10912 10919 10919 10911 10910 10913 10921 10931 10931 10929 10930 10929 10932 10934 10935 10946 10957 10956 10952 10953 10959 10963 10965
10640 10636 10633 10632 10631 10630 10630 10629 10630 10632 10633 10636 10639 10640 10644 10647 10651 10658 10661 10661 10669 10682 10696 10710 10720 10723 10725 10728 10729 10729 10733 10736 10739 10745 10751 10755 10764 10776 10784 10789 10793 10802 10815 10817 10814 10818 10827 10831 10838 10847 10855 10859 10862 10865 10867 10871 10874 10876 10879 10883 10887 10890 10895 10899 10901 10904 10908 10905 10903 10906 10909 10920 10928 10922 10920 10923 10924 10929 10931 10931 10941 10953 10954 10950 10950 10954 10958 10962
10625 10620 10615 10613 10612 10612 10611 10610 10610 10611 10612 10614 10616 10618 10622 10625 10630 10639 10643 10647 10660 10671 10677 10687 10697 10699 10705 10710 10706 10702 10709 10717 10719 10723 10731 10738 10748 10762 10771 10777 10783 10793 10799 10797 10799 10811 10817 10820 10832 10844 10847 10847 10850 10855 10857 10860 10863 10865 10869 10873 10877 10883 10888 10890 10892 10894 10895 10895 10898 10902 10908 10919 10920 10909 10909 10918 10921 10926 10929 10928 10935 10947 10950 10948 10948 10950 10954 10958
10609 10604 10598 10593 10592 10592 10591 10590 10589 10590 10591 10592 10594 10596 10599 10602 10609 10620 10625 10630 10642 10651 10657 10665 10669 10672 10682 10684 10674 10676 10693 10702 10702 10708 10719 10730 10740 10752 10762 10768 10772 10777 10779 10783 10795 10806 10807 10815 10827 10828 10828 10832 10837 10842 10844 10847 10853 10857 10860 10866 10874 10879 10880 10881 10883 10884 10886 10890 10895 10901 10907 10912 10908 10901 10906 10915 10917 10921 10925 10924 10929 10940 10945 10945 10947 10948 10949 10952
10592 10588 10581 10575 10573 10573 10571 10570 10570 10569 10571 10572 10572 10574 10577 10580 10588 10599 10607 10611 10621 10633 10640 10642 10643 10649 10657 10657 10656 10670 10687 10689 10690 10701 10713 10723 10735 10745 10750 10754 10757 10760 10765 10775 10787 10791 10795 10806 10811 10809 10814 10823 10827 10831 10834 10838 10845 10849 10853 10864 10870 10868 10868 10873 10875 10876 10881 10889 10894 10899 10902 10902 10899 10899 10904 10910 10911 10914 10918 10920 10923 10931 10938 10942 10944 10944 10945 10946
10575 10572 10565 10558 10556 10556 10553 10551 10550 10550 10551 10551 10552 10554 10557 10560 10567 10578 10587 10593 10600 10612 10621 10622 10622 10628 10634 10640 10651 10666 10674 10673 10678 10690 10698 10707 10720 10727 10730 10735 10740 10742 10747 10758 10766 10771 10782 10792 10791 10793 10805 10815 10817 10820 10824 10829 10836 10842 10850 10858 10857 10855 10861 10867 10870 10873 10880 10887 10890 10893 10894 10893 10894 10896 10899 10903 10906 10908 10912 10916 10918 10922 10931 10938 10939 10939 10942 10941
10560 10557 10551 10542 10539 10540 10538 10534 10532 10532 10532 10533 10534 10536 10538 10542 10548 10556 10566 10575 10581 10590 10601 10604 10603 10608 10616 10627 10640 10650 10655 10658 10666 10674 10679 10687 10696 10700 10704 10711 10714 10714 10720 10731 10740 10751 10767 10775 10774 10783 10797 10804 10805 10806 10813 10823 10832 10840 10845 10846 10846 10851 10859 10864 10867 10871 10877 10881 10883 10885 10887 10887 10890 10892 10893 10897 10901 10902 10907 10911 10913 10917 10925 10932 10934 10934 10938 10938
10547 10545 10540 10531 10525 10524 10522 10519 10517 10516 10514 10515 10518 10520 10522 10525 10530 10536 10546 10556 10562 10569 10580 10584 10586 10591 10598 10608 10621 10629 10636 10644 10651 10656 10659 10666 10675 10681 10690 10698 10700 10702 10710 10721 10733 10746 10759 10764 10768 10779 10789 10791 10790 10796 10809 10823 10830 10835 10837 10838 10843 10850 10855 10860 10863 10866 10870 10874 10876 10878 10881 10882 10884 10886 10887 10892 10896 10899 10903 10907 10909 10912 10919 10926 10928 10929 10932 10934
10535 10532 10529 10523 10516 10512 10509 10505 10504 10502 10499 10499 10502 10504 10507 10510 10513 10518 10527 10537 10545 10550 10558 10565 10569 10572 10577 10588 10600 10608 10619 10628 10634 10638 10642 10649 10659 10668 10682 10693 10698 10704 10714 10727 10742 10752 10757 10761 10766 10774 10777 10776 10782 10798 10815 10823 10825 10829 10832 10835 10840 10846 10851 10856 10859 10861 10865 10869 10871 10872 10875 10875 10875 10880 10886 10890 10893 10895 10899 10902 10903 10905 10912 10920 10922 10922 10925 10927
10524 10520 10516 10512 10506 10501 10498 10494 10492 10490 10486 10485 10487 10489 10492 10496 10499 10502 10509 10519 10528 10533 10539 10546 10550 10552 10560 10572 10580 10590 10605 10613 10616 10623 10626 10631 10641 10652 10668 10683 10690 10697 10708 10723 10737 10742 10745 10752 10759 10761 10762 10767 10783 10802 10811 10812 10814 10819 10823 10827 10832 10838 10843 10850 10853 10855 10859 10863 10864 10866 10868 10866 10869 10878 10884 10885 10888 10890 10892 10894 10896 10898 10905 10914 10915 10914 10917 10921
10512 10508 10504 10501 10496 10490 10486 10483 10480 10479 10476 10474 10475 10476 10478 10482 10485 10489 10494 10503 10511 10516 10520 10526 10530 10536 10545 10554 10564 10578 10590 10595 10598 10605 10608 10612 10625 10639 10654 10669 10677 10684 10696 10710 10722 10728 10736 10748 10754 10753 10757 10770 10785 10794 10797 10798 10800 10805 10810 10816 10823 10829 10836 10845 10848 10847 10851 10855 10856 10858 10859 10859 10865 10874 10879 10880 10883 10884 10884 10887 10890 10893 10900 10907 10909 10908 10910 10915
10503 10499 10495 10491 10486 10480 10476 10472 10469 10467 10466 10464 10464 10465 10467 10469 10472 10475 10481 10488 10495 10499 10504 10508 10514 10522 10529 10539 10553 10562 10568 10576 10579 10584 10593 10604 10616 10630 10642 10657 10666 10673 10687 10704 10715 10726 10736 10744 10749 10750 10755 10767 10774 10778 10785 10786 10785 10794 10805 10812 10819 10826 10833 10839 10840 10838 10842 10847 10849 10851 10854 10854 10860 10870 10874 10876 10877 10877 10878 10883 10886 10889 10895 10901 10903 10902 10904 10909
10497 10492 10487 10482 10477 10472 10467 10463 10459 10457 10455 10454 10453 10454 10456 10458 10460 10463 10468 10475 10480 10484 10489 10493 10499 10508 10515 10524 10536 10540 10547 10559 10562 10568 10588 10602 10609 10620 10632 10645 10657 10666 10682 10696 10703 10713 10722 10729 10738 10741 10744 10756 10762 10766 10775 10777 10779 10794 10806 10811 10817 10823 10826 10830 10831 10832 10836 10843 10845 10847 10847 10849 10857 10865 10868 10869 10871 10874 10876 10879 10882 10885 10890 10897 10898 10897 10898 10903
10493 10487 10479 10472 10467 10463 10458 10454 10450 10448 10446 10445 10444 10445 10446 10448 10451 10453 10457 10463 10467 10471 10475 10480 10486 10493 10500 10507 10516 10522 10531 10542 10547 10561 10585 10594 10599 10611 10621 10632 10648 10660 10674 10684 10688 10699 10710 10717 10729 10733 10737 10750 10757 10759 10771 10779 10783 10793 10801 10806 10810 10814 10817 10821 10825 10828 10833 10838 10841 10842 10841 10845 10854 10860 10861 10863 10868 10872 10873 10874 10878 10882 10886 10892 10894 10892 10893 10898
10488 10484 10477 10466 10459 10455 10451 10447 10443 10441 10439 10437 10436 10437 10437 10439 10442 10444 10447 10451 10455 10458 10463 10469 10473 10478 10485 10491 10498 10507 10516 10526 10540 10558 10573 10580 10588 10600 10610 10621 10637 10652 10663 10670 10676 10690 10701 10708 10720 10728 10734 10745 10751 10757 10770 10778 10779 10783 10792 10798 10801 10805 10810 10814 10818 10825 10829 10831 10834 10836 10836 10842 10850 10853 10853 10859 10865 10869 10870 10870 10874 10878 10880 10885 10888 10887 10888 10892
10481 10477 10474 10465 10455 10449 10444 10440 10438 10435 10433 10431 10430 10429 10430 10431 10433 10435 10438 10441 10444 10447 10451 10457 10461 10465 10472 10477 10483 10493 10503 10516 10534 10548 10557 10567 10577 10589 10600 10611 10625 10640 10650 10657 10667 10681 10689 10695 10706 10717 10724 10733 10743 10750 10757 10764 10768 10774 10783 10790 10794 10799 10805 10811 10816 10820 10822 10823 10827 10829 10830 10837 10845 10844 10846 10854 10860 10863 10865 10866 10870 10873 10873 10878 10882 10883 10883 10886
10476 10470 10466 10460 10452 10445 10438 10434 10432 10429 10427 10425 10423 10423 10422 10423 10425 10427 10430 10432 10434 10437 10441 10446 10450 10453 10459 10464 10470 10482 10493 10504 10522 10535 10544 10555 10566 10578 10592 10602 10613 10627 10637 10646 10659 10672 10679 10684 10693 10704 10714 10723 10732 10736 10742 10753 10762 10767 10772 10780 10788 10793 10800 10808 10811 10811 10814 10819 10822 10823 10824 10831 10838 10838 10841 10850 10852 10855 10860 10863 10865 10867 10868 10871 10875 10877 10879 10880
10472 10464 10459 10454 10447 10441 10435 10430 10427 10424 10422 10420 10418 10417 10416 10416 10418 10420 10422 10424 10426 10428 10432 10436 10440 10443 10448 10454 10460 10471 10483 10494 10510 10523 10531 10543 10554 10567 10582 10593 10602 10614 10627 10639 10652 10664 10671 10675 10682 10695 10706 10712 10720 10727 10736 10749 10758 10762 10767 10775 10783 10789 10795 10800 10801 10802 10807 10812 10814 10816 10818 10825 10832 10835 10839 10841 10842 10848 10857 10860 10861 10862 10862 10865 10870 10873 10875 10877
10469 10462 10455 10449 10443 10437 10432 10427 10423 10420 10418 10415 10413 10412 10411 10411 10412 10413 10415 10417 10418 10421 10424 10427 10432 10435 10439 10445 10451 10461 10475 10486 10498 10509 10519 10531 10541 10554 10572 10584 10590 10603 10618 10630 10643 10655 10663 10666 10674 10689 10698 10704 10713 10722 10730 10741 10752 10758 10764 10771 10779 10786 10789 10790 10793 10796 10801 10805 10807 10809 10812 10820 10828 10832 10832 10830 10833 10846 10856 10857 10857 10858 10859 10862 10866 10868 10871 10873
10465 10459 10453 10446 10439 10433 10428 10423 10419 10416 10414 10411 10409 10408 10407 10406 10407 10407 10409 10410 10412 10414 10417 10420 10425 10427 10432 10437 10443 10454 10467 10476 10485 10497 10508 10519 10528 10540 10561 10574 10581 10595 10609 10619 10632 10646 10655 10660 10669 10683 10693 10698 10707 10715 10720 10734 10748 10755 10761 10767 10772 10779 10783 10784 10787 10792 10796 10798 10800 10803 10808 10815 10822 10825 10824 10822 10829 10843 10853 10853 10853 10854 10855 10858 10861 10864 10866 10869
10463 10455 10449 10443 10437 10431 10425 10420 10416 10413 10410 10408 10406 10404 10402 10402 10402 10402 10403 10404 10406 10409 10411 10414 10418 10421 10425 10430 10437 10448 10460 10466 10473 10486 10499 10508 10516 10530 10551 10565 10574 10588 10600 10609 10624 10638 10648 10653 10661 10674 10684 10689 10698 10707 10714 10727 10741 10748 10755 10760 10765 10772 10778 10779 10780 10786 10790 10791 10795 10799 10803 10808 10814 10818 10817 10817 10824 10837 10846 10849 10850 10849 10850 10852 10855 10859 10862 10864